ポイマンスキー彗星

C/2006 A1 ( Pojmanski )

English version
Home page
Updated on January 20, 2013

---------------------------------------------------------------------

・ プロフィール

発見日 2006年1月1日
発見光度 12.5等
発見者 Grzegorz Pojmanski (Warsaw University Astronomical Observatory)

・ 写真集

・ 軌道要素

Epoch 2006 Mar. 6.0 TT = JDT 2453800.5
T 2006 Feb. 22.18162 TT                                 MPC
q   0.5553957            (2000.0)            P               Q
z  +0.0003996      Peri.  351.18801     -0.84018084     -0.15537469
 +/-0.0000014      Node   211.34331     -0.41647200     -0.42877896
e   0.9997781      Incl.   92.73617     -0.34734310     +0.88994792
From 552 observations 2006 Jan. 4-Sept. 7, mean residual 0".5.

・ 星図

・ 光度変化

        m1 =  8.6 + 5 logΔ + 20.0 log r  [   ,-27]  (              〜2006年 1月26日)
        m1 =  7.5 + 5 logΔ +  7.5 log r  [-27, 40]  (2006年 1月26日〜2006年 4月 3日)
        m1 =  7.4 + 5 logΔ + 15.0 log r  [ 40, 80]  (2006年 4月 3日〜2006年 5月13日)
        m1 = 11.5 + 5 logΔ + 10.0 log r  [ 80,   ]  (2006年 5月13日〜              )

---------------------------------------------------------------------

軌道要素はM.P.E.C. 2013-A29に掲載されたものです。
星図は StellaNavigator Ver.2.0 for Windows (アストロアーツ 編著 / アスキー出版局刊) で作成したものです。
光度グラフはComet for Windowsで作成したものです。

---------------------------------------------------------------------

Copyright(C) Seiichi Yoshida (comet@aerith.net). All rights reserved.